Weather observations for the past three days for
St. Petersburg/Clearwater Airport
| Date | Time (edt) | Wind (mph) | Vis. (mi.) | Weather | Sky Cond. | Temperature (ºF) | Relative Humidity | Wind Chill (°F) | Heat Index (°F) | Pressure | Precipitation (in) | ||||||
|---|---|---|---|---|---|---|---|---|---|---|---|---|---|---|---|---|---|
| Air | Dwpt | 6 hour | altimeter (in) | sea level (mb) | 1 hr | 3 hr | 6 hr | ||||||||||
| Max. | Min. | ||||||||||||||||
| 07 | 23:53 | W 6 | 10.00 | Fair | CLR | 75.9 | 72 | 88% | 76 | 29.98 | 1015.0 | ||||||
| 07 | 22:53 | W 6 | 10.00 | Fair | CLR | 75.9 | 72 | 88% | 76 | 29.97 | 1014.9 | ||||||
| 07 | 21:53 | W 6 | 10.00 | Fair | CLR | 77 | 71.1 | 82% | 79 | 29.97 | 1014.8 | ||||||
| 07 | 20:53 | W 8 | 10.00 | Fair | CLR | 78.1 | 70 | 76% | 80 | 29.96 | 1014.6 | ||||||
| 07 | 19:53 | W 7 | 10.00 | Fair | CLR | 81 | 66.9 | 90 | 81 | 62% | 83 | 29.96 | 1014.4 | ||||
| 07 | 18:53 | W 9 | 10.00 | Fair | CLR | 84.9 | 64.9 | 51% | 87 | 29.95 | 1014.2 | ||||||
| 07 | 17:53 | W 8 | 10.00 | Fair | CLR | 87.1 | 64 | 46% | 88 | 29.95 | 1014.2 | ||||||
| 07 | 16:53 | W 6 | 10.00 | Fair | CLR | 89.1 | 62.1 | 41% | 89 | 29.96 | 1014.4 | ||||||
| 07 | 15:53 | SW 8 | 10.00 | Fair | CLR | 88 | 63 | 43% | 89 | 29.97 | 1014.7 | ||||||
| 07 | 14:53 | W 10 | 10.00 | Fair | CLR | 88 | 61 | 40% | 88 | 29.99 | 1015.6 | ||||||
| 07 | 13:53 | SW 10 | 10.00 | Fair | CLR | 87.1 | 62.1 | 88 | 73.9 | 43% | 88 | 30.01 | 1016.0 | ||||
| 07 | 12:53 | SW 13 | 10.00 | Fair | CLR | 86 | 66.9 | 53% | 89 | 30.01 | 1016.3 | ||||||
| 07 | 11:53 | SW 13 | 10.00 | Fair | CLR | 84.9 | 66 | 53% | 87 | 30.02 | 1016.7 | ||||||
| 07 | 10:53 | S 13 | 10.00 | Fair | CLR | 84.9 | 64 | 50% | 86 | 30.03 | 1016.7 | ||||||
| 07 | 09:53 | S 10 | 10.00 | Fair | CLR | 82.9 | 69.1 | 63% | 87 | 30.02 | 1016.4 | ||||||
| 07 | 08:53 | S 9 | 10.00 | Fair | CLR | 78.1 | 73 | 85% | 81 | 30 | 1015.9 | ||||||
| 07 | 07:53 | S 6 | 7.00 | Fair | CLR | 73.9 | 73 | 75.9 | 70 | 97% | 29.99 | 1015.6 | |||||
| 07 | 06:53 | S 6 | 5.00 | Fog/Mist | CLR | 71.1 | 71.1 | 100% | 29.98 | 1015.2 | |||||||
| 07 | 05:53 | Calm | 1.50 | Fog/Mist | CLR | 71.1 | 71.1 | 100% | 29.98 | 1015.2 | |||||||
| 07 | 04:53 | Calm | 10.00 | Fair | CLR | 72 | 71.1 | 97% | 29.97 | 1014.9 | |||||||
| 07 | 03:53 | Calm | 10.00 | Fair | CLR | 73 | 71.1 | 94% | 29.95 | 1014.3 | |||||||
| 07 | 02:53 | E 5 | 10.00 | A Few Clouds | FEW011 | 73.9 | 72 | 94% | 29.98 | 1015.1 | |||||||
| 07 | 01:53 | NE 5 | 10.00 | A Few Clouds | FEW010 | 75.9 | 73 | 79 | 75 | 91% | 76 | 29.99 | 1015.5 | ||||
| 07 | 00:53 | NE 3 | 10.00 | A Few Clouds | FEW011 | 75.9 | 72 | 88% | 76 | 30.01 | 1016.0 | ||||||
| 06 | 23:53 | N 5 | 10.00 | Mostly Cloudy | BKN013 | 75.9 | 73 | 91% | 76 | 30.01 | 1016.3 | ||||||
| 06 | 22:53 | Calm | 10.00 | Partly Cloudy | SCT012 | 75 | 73 | 94% | 73 | 30.01 | 1016.0 | ||||||
| 06 | 21:53 | NW 5 | 10.00 | A Few Clouds | FEW012 | 75.9 | 73 | 91% | 76 | 30 | 1015.8 | ||||||
| 06 | 20:53 | W 8 | 10.00 | Fair | CLR | 77 | 73 | 88% | 78 | 30 | 1015.7 | ||||||
| 06 | 19:53 | W 12 | 10.00 | Fair | CLR | 79 | 72 | 88 | 79 | 79% | 82 | 29.99 | 1015.5 | ||||
| 06 | 18:53 | SW 12 | 10.00 | Fair | CLR | 84 | 72 | 67% | 90 | 29.98 | 1015.3 | ||||||
| 06 | 17:53 | W 9 | 10.00 | Fair | CLR | 87.1 | 71.1 | 59% | 93 | 29.99 | 1015.4 | ||||||
| 06 | 16:53 | S 10 | 10.00 | Fair | CLR | 87.1 | 72 | 61% | 94 | 29.99 | 1015.4 | ||||||
| 06 | 15:53 | SW 10 | 10.00 | Fair | CLR | 87.1 | 73 | 63% | 95 | 29.99 | 1015.6 | ||||||
| 06 | 14:53 | SW 14 | 10.00 | A Few Clouds | FEW032 | 87.1 | 73.9 | 65% | 95 | 30.01 | 1016.1 | ||||||
| 06 | 13:53 | SW 9 G 18 | 10.00 | Partly Cloudy | SCT037 | 87.1 | 73.9 | 89.1 | 73.9 | 65% | 95 | 30.02 | 1016.6 | ||||
| 06 | 12:53 | Vrbl 6 | 10.00 | A Few Clouds | FEW039 | 87.1 | 70 | 57% | 92 | 30.03 | 1017.0 | ||||||
| 06 | 11:53 | S 12 | 10.00 | Fair | CLR | 86 | 70 | 59% | 91 | 30.04 | 1017.2 | ||||||
| 06 | 10:53 | S 12 | 10.00 | Fair | CLR | 84 | 71.1 | 65% | 89 | 30.04 | 1017.1 | ||||||
| 06 | 09:53 | S 12 | 10.00 | Fair | CLR | 81 | 71.1 | 72% | 85 | 30.03 | 1017.0 | ||||||
| 06 | 08:53 | S 9 | 10.00 | Fair | CLR | 77 | 71.1 | 82% | 79 | 30.03 | 1016.8 | ||||||
| 06 | 07:53 | SE 10 | 10.00 | Fair | CLR | 73.9 | 70 | 73.9 | 71.1 | 88% | 30.01 | 1016.1 | |||||
| 06 | 06:53 | SE 7 | 10.00 | Fair | CLR | 72 | 69.1 | 91% | 30 | 1015.7 | |||||||
| 06 | 05:53 | S 6 | 10.00 | Fair | CLR | 72 | 68 | 87% | 29.99 | 1015.5 | |||||||
| 06 | 04:53 | SE 8 | 10.00 | Fair | CLR | 72 | 66.9 | 84% | 29.98 | 1015.3 | |||||||
| 06 | 03:53 | SE 10 | 10.00 | Fair | CLR | 73 | 66.9 | 81% | 29.98 | 1015.2 | |||||||
| 06 | 02:53 | SE 9 | 10.00 | Fair | CLR | 73.9 | 66 | 76% | 30 | 1015.7 | |||||||
| 06 | 01:53 | SE 7 | 10.00 | Fair | CLR | 73.9 | 64.9 | 78.1 | 73.9 | 74% | 30.01 | 1016.2 | |||||
| 06 | 00:53 | SE 9 | 10.00 | Fair | CLR | 75 | 63 | 66% | 77 | 30.02 | 1016.6 | ||||||
| 05 | 23:53 | E 14 G 18 | 10.00 | Fair | CLR | 75.9 | 64 | 67% | 78 | 30.01 | 1016.3 | ||||||
| 05 | 22:53 | NE 9 | 10.00 | Fair | CLR | 75.9 | 69.1 | 79% | 77 | 30.02 | 1016.3 | ||||||
| 05 | 21:53 | N 6 | 10.00 | Fair | CLR | 73.9 | 69.1 | 85% | 29.99 | 1015.6 | |||||||
| 05 | 20:53 | W 6 | 10.00 | Fair | CLR | 75 | 68 | 79% | 76 | 29.98 | 1015.0 | ||||||
| 05 | 19:53 | NW 8 | 10.00 | Fair | CLR | 78.1 | 69.1 | 88 | 78.1 | 74% | 80 | 29.96 | 1014.5 | ||||
| 05 | 18:53 | NW 10 | 10.00 | Fair | CLR | 81 | 68 | 65% | 84 | 29.96 | 1014.4 | ||||||
| 05 | 17:53 | NW 10 | 10.00 | Fair | CLR | 82.9 | 68 | 61% | 86 | 29.96 | 1014.5 | ||||||
| 05 | 16:53 | NW 13 | 10.00 | Fair | CLR | 84.9 | 68 | 57% | 88 | 29.95 | 1014.3 | ||||||
| 05 | 15:53 | N 8 | 10.00 | Fair | CLR | 84.9 | 66.9 | 55% | 88 | 29.96 | 1014.5 | ||||||
| 05 | 14:53 | NE 7 | 10.00 | Fair | CLR | 86 | 64.9 | 49% | 88 | 29.97 | 1014.8 | ||||||
| 05 | 13:53 | E 8 | 10.00 | Fair | CLR | 84.9 | 66 | 86 | 72 | 53% | 87 | 29.99 | 1015.6 | ||||
| 05 | 12:53 | SE 10 | 10.00 | Partly Cloudy | SCT039 | 82.9 | 66 | 57% | 85 | 30.01 | 1016.3 | ||||||
| 05 | 11:53 | SE 12 G 20 | 10.00 | Partly Cloudy | SCT039 | 82 | 64.9 | 56% | 84 | 30.02 | 1016.4 | ||||||
| 05 | 10:53 | E 10 | 10.00 | A Few Clouds | FEW039 | 79 | 66 | 65% | 81 | 30.02 | 1016.4 | ||||||
| 05 | 09:53 | E 9 G 20 | 10.00 | Fair | CLR | 77 | 66 | 69% | 79 | 30 | 1015.9 | ||||||
| 05 | 08:53 | E 9 | 10.00 | Fair | CLR | 73.9 | 66 | 76% | 30 | 1015.7 | |||||||
| 05 | 07:53 | E 8 | 10.00 | Fair | CLR | 72 | 66 | 72 | 70 | 82% | 30 | 1015.8 | |||||
| 05 | 06:53 | E 8 | 10.00 | Fair | CLR | 70 | 64.9 | 84% | 29.97 | 1014.8 | |||||||
| 05 | 05:53 | E 6 | 10.00 | Fair | CLR | 70 | 64.9 | 84% | 29.96 | 1014.4 | |||||||
| 05 | 04:53 | E 7 | 10.00 | Fair | CLR | 70 | 64.9 | 84% | 29.95 | 1014.2 | |||||||
| 05 | 03:53 | E 9 | 10.00 | Fair | CLR | 71.1 | 64.9 | 81% | 29.95 | 1014.0 | |||||||
| 05 | 02:53 | E 9 | 10.00 | Fair | CLR | 71.1 | 64.9 | 81% | 29.96 | 1014.4 | |||||||
| 05 | 01:53 | E 9 | 10.00 | A Few Clouds | FEW042 FEW060 | 72 | 64 | 77 | 72 | 76% | 29.98 | 1015.2 | |||||
| 05 | 00:53 | E 10 | 10.00 | Overcast | FEW028 BKN043 OVC055 | 73 | 63 | 71% | 30 | 1015.8 | |||||||
| Date | Time (edt) | Wind (mph) | Vis. (mi.) | Weather | Sky Cond. | Air | Dwpt | Max. | Min. | Relative Humidity | Wind Chill (°F) | Heat Index (°F) | altimeter (in) | sea level (mb) | 1 hr | 3 hr | 6 hr |
| 6 hour | |||||||||||||||||
| Temperature (ºF) | Pressure | Precipitation (in) | |||||||||||||||